Leesburg, VA

11:22 PM EST on November 21, 2017 (GMT -0500)
Leesburg Executive

Weather History for KJYO - January, 2014

Change the Weather History Date:

Thursday, January 2, 2014

  Actual Average (KIAD) Record (KIAD)
Temperature  
Mean Temperature 32 °F -  
Max Temperature 33 °F 42 °F 67 °F (2000)
Min Temperature 28 °F 23 °F -7 °F (1968)
Degree Days  
Heating Degree Days 34    
Moisture  
Dew Point 31 °F    
Average Humidity 96    
Maximum Humidity 100    
Minimum Humidity 93    
Precipitation  
Precipitation 0.00 in - - ()
Sea Level Pressure  
Sea Level Pressure 29.86 in    
Wind  
Wind Speed 4 mph (NNE)    
Max Wind Speed 13 mph    
Max Gust Speed 17 mph    
Visibility 5 miles    
Events Snow    
Averages and records for this station are not official NWS values.
T = Trace of Precipitation, MM = Missing Value Source: NWS Daily Summary

Daily Weather History Graph

Daily Weather History Graph

Search for Another Location

Airport or City:

Trip Planner

Search our weather history database for the weather conditions in past years. The results will help you decide how hot, cold, wet, or windy it might be!

Date:

Astronomy

Jan. 02, 2014 Rise Set
Actual Time 7:29 AM EST 4:59 PM EST
Civil Twilight 6:59 AM EST 5:29 PM EST
Nautical Twilight 6:26 AM EST 6:02 PM EST
Astronomical Twilight 5:53 AM EST 6:35 PM EST
Moon 8:10 AM EST (1/2) 6:52 PM EST (1/2)
Length of Visible Light 10h 29m
Length of Day
9h 29m
New Moon, 2% of the Moon is Illuminated
Jan 2
New Moon
Jan 7
First Quarter
Jan 15
Full
Jan 24
Last Quarter
Jan 30
New

Hourly Weather History & Observations

Time (EST) Temp. Windchill Dew Point Humidity Pressure Visibility Wind Dir Wind Speed Gust Speed Precip Events Conditions
12:15 AM 32.0 °F - 32.0 °F 100% 30.12 in 10.0 mi Calm Calm - N/A   Clear
12:35 AM 32.0 °F - 32.0 °F 100% 30.11 in 10.0 mi Calm Calm - N/A   Clear
12:55 AM 33.8 °F - 32.0 °F 93% 30.10 in 10.0 mi Calm Calm - N/A   Clear
1:15 AM 32.0 °F - 32.0 °F 100% 30.09 in 10.0 mi Calm Calm - N/A   Clear
1:35 AM 32.0 °F - 30.2 °F 93% 30.08 in 10.0 mi Calm Calm - N/A   Clear
1:55 AM 32.0 °F 28.7 °F 30.2 °F 93% 30.08 in 10.0 mi North 3.5 mph - N/A   Clear
2:15 AM 32.0 °F 28.7 °F 30.2 °F 93% 30.09 in 10.0 mi NNE 3.5 mph - N/A   Clear
2:35 AM 32.0 °F - 30.2 °F 93% 30.08 in 10.0 mi Calm Calm - N/A   Clear
2:55 AM 30.2 °F 25.4 °F 28.4 °F 93% 30.08 in 10.0 mi North 4.6 mph - N/A   Clear
3:15 AM 32.0 °F 28.7 °F 30.2 °F 93% 30.07 in 10.0 mi NNE 3.5 mph - N/A   Clear
3:35 AM 32.0 °F 28.7 °F 30.2 °F 93% 30.06 in 10.0 mi NNE 3.5 mph - N/A   Clear
3:55 AM 32.0 °F 25.6 °F 30.2 °F 93% 30.04 in 10.0 mi NNE 6.9 mph - N/A   Clear
4:15 AM 32.0 °F 26.4 °F 30.2 °F 93% 30.03 in 10.0 mi NNE 5.8 mph - N/A   Clear
4:35 AM 32.0 °F 25.6 °F 30.2 °F 93% 30.02 in 10.0 mi NNE 6.9 mph - N/A   Clear
4:55 AM 32.0 °F 26.4 °F 30.2 °F 93% 30.02 in 10.0 mi NNE 5.8 mph - N/A   Clear
5:15 AM 32.0 °F 27.5 °F 30.2 °F 93% 30.01 in 10.0 mi NNE 4.6 mph - N/A   Clear
5:35 AM 32.0 °F 26.4 °F 30.2 °F 93% 30.01 in 10.0 mi NNE 5.8 mph - N/A   Clear
5:55 AM 32.0 °F 26.4 °F 30.2 °F 93% 30.01 in 10.0 mi NNE 5.8 mph - N/A   Clear
6:15 AM 32.0 °F 25.6 °F 30.2 °F 93% 29.99 in 10.0 mi NNE 6.9 mph - N/A   Clear
6:35 AM 32.0 °F 27.5 °F 30.2 °F 93% 30.00 in 10.0 mi NNE 4.6 mph - N/A   Clear
6:55 AM 32.0 °F 24.8 °F 30.2 °F 93% 30.00 in 10.0 mi NNE 8.1 mph - N/A   Clear
7:15 AM 32.0 °F 26.4 °F 30.2 °F 93% 29.99 in 7.0 mi NNE 5.8 mph - N/A   Clear
7:35 AM 32.0 °F 27.5 °F 30.2 °F 93% 29.99 in 7.0 mi NE 4.6 mph - N/A   Clear
7:55 AM 32.0 °F 26.4 °F 30.2 °F 93% 29.98 in 7.0 mi NNE 5.8 mph - N/A   Clear
8:15 AM 32.0 °F 26.4 °F 30.2 °F 93% 29.98 in 7.0 mi NNE 5.8 mph - N/A   Clear
8:35 AM 32.0 °F 24.8 °F 30.2 °F 93% 29.98 in 7.0 mi North 8.1 mph - N/A   Clear
8:55 AM 32.0 °F 25.6 °F 30.2 °F 93% 29.97 in 7.0 mi NNE 6.9 mph - N/A   Mostly Cloudy
9:15 AM 32.0 °F 25.6 °F 30.2 °F 93% 29.97 in 7.0 mi NNE 6.9 mph - N/A   Overcast
9:35 AM 32.0 °F 26.4 °F 30.2 °F 93% 29.96 in 7.0 mi NNE 5.8 mph - N/A   Overcast
9:55 AM 32.0 °F 25.6 °F 32.0 °F 100% 29.95 in 5.0 mi NNE 6.9 mph - N/A   Overcast
10:15 AM 32.0 °F 27.5 °F 32.0 °F 100% 29.95 in 5.0 mi NNE 4.6 mph - N/A   Overcast
10:35 AM 32.0 °F 26.4 °F 32.0 °F 100% 29.94 in 4.0 mi NNE 5.8 mph - N/A   Overcast
10:55 AM 32.0 °F 27.5 °F 32.0 °F 100% 29.93 in 4.0 mi NNE 4.6 mph - N/A   Overcast
11:15 AM 32.0 °F 25.6 °F 32.0 °F 100% 29.92 in 4.0 mi NNE 6.9 mph - N/A   Overcast
11:35 AM 33.8 °F 26.4 °F 32.0 °F 93% 29.88 in 4.0 mi NE 9.2 mph - N/A   Overcast
11:55 AM 33.8 °F 27.0 °F 32.0 °F 93% 29.86 in 5.0 mi NE 8.1 mph - N/A   Overcast
12:15 PM 33.8 °F 28.6 °F 32.0 °F 93% 29.85 in 4.0 mi NE 5.8 mph - N/A   Overcast
12:35 PM 33.8 °F 30.8 °F 32.0 °F 93% 29.83 in 5.0 mi ENE 3.5 mph - N/A   Overcast
12:55 PM 33.8 °F 29.6 °F 32.0 °F 93% 29.81 in 5.0 mi NE 4.6 mph - N/A   Overcast
1:15 PM 33.8 °F 28.6 °F 32.0 °F 93% 29.81 in 5.0 mi NNE 5.8 mph - N/A   Overcast
1:35 PM 33.8 °F 29.6 °F 32.0 °F 93% 29.80 in 5.0 mi North 4.6 mph - N/A   Overcast
1:55 PM 33.8 °F 29.6 °F 32.0 °F 93% 29.80 in 5.0 mi North 4.6 mph - N/A   Overcast
2:15 PM 33.8 °F 28.6 °F 32.0 °F 93% 29.79 in 3.0 mi NNE 5.8 mph - N/A Snow Light Snow
2:35 PM 33.8 °F 29.6 °F 32.0 °F 93% 29.77 in 2.5 mi NE 4.6 mph - N/A Snow Light Snow
2:55 PM 33.8 °F - 33.8 °F 100% 29.76 in 1.5 mi Calm Calm - N/A Snow Light Snow
3:15 PM 33.8 °F 30.8 °F 33.8 °F 100% 29.75 in 0.8 mi NE 3.5 mph - N/A Snow Light Snow
3:35 PM 33.8 °F 30.8 °F 33.8 °F 100% 29.73 in 0.8 mi NE 3.5 mph - N/A Snow Light Snow
3:55 PM 33.8 °F 30.8 °F 33.8 °F 100% 29.72 in 0.8 mi NE 3.5 mph - N/A Snow Light Snow
4:15 PM 32.0 °F 27.5 °F 32.0 °F 100% 29.72 in 1.0 mi North 4.6 mph - N/A Snow Light Snow
4:35 PM 32.0 °F 27.5 °F 32.0 °F 100% 29.70 in 0.5 mi NNE 4.6 mph - N/A Snow Light Snow
4:55 PM 32.0 °F 27.5 °F 32.0 °F 100% 29.71 in 0.8 mi North 4.6 mph - N/A Snow Snow
5:15 PM 32.0 °F 28.7 °F 32.0 °F 100% 29.69 in 0.8 mi NNE 3.5 mph - N/A Snow Snow
5:35 PM 32.0 °F 27.5 °F 32.0 °F 100% 29.68 in 0.8 mi NE 4.6 mph - N/A Snow Snow
5:55 PM 32.0 °F 27.5 °F 32.0 °F 100% 29.69 in 1.0 mi North 4.6 mph - N/A Snow Light Snow
6:15 PM 32.0 °F 26.4 °F 32.0 °F 100% 29.69 in 1.5 mi NNE 5.8 mph - N/A Snow Light Snow
6:35 PM 32.0 °F 26.4 °F 32.0 °F 100% 29.68 in 1.2 mi NNE 5.8 mph - N/A Snow Light Snow
6:55 PM 32.0 °F 24.8 °F 32.0 °F 100% 29.68 in 1.0 mi NNE 8.1 mph - N/A Snow Light Snow
7:15 PM 32.0 °F 26.4 °F 32.0 °F 100% 29.69 in 1.5 mi North 5.8 mph - N/A Snow Light Snow
7:35 PM 32.0 °F 26.4 °F 32.0 °F 100% 29.68 in 1.0 mi North 5.8 mph - N/A Snow Snow
7:55 PM 32.0 °F 26.4 °F 32.0 °F 100% 29.66 in 1.0 mi NNE 5.8 mph - N/A Snow Snow
8:15 PM 32.0 °F 26.4 °F 32.0 °F 100% 29.67 in 1.0 mi North 5.8 mph - N/A Snow Light Snow
8:35 PM 32.0 °F 26.4 °F 32.0 °F 100% 29.65 in 1.2 mi NNE 5.8 mph - N/A Snow Light Snow
8:55 PM 32.0 °F 24.8 °F 32.0 °F 100% 29.65 in 1.2 mi NNE 8.1 mph - N/A Snow Light Snow
9:15 PM 32.0 °F 24.8 °F 32.0 °F 100% 29.65 in 1.8 mi NNE 8.1 mph - N/A Snow Light Snow
9:35 PM 32.0 °F 23.6 °F 32.0 °F 100% 29.65 in 2.5 mi North 10.4 mph - N/A Snow Light Snow
9:55 PM 32.0 °F 24.2 °F 32.0 °F 100% 29.65 in 3.0 mi NNE 9.2 mph - N/A   Overcast
10:15 PM 30.2 °F 20.8 °F 30.2 °F 100% 29.65 in 3.0 mi NNE 11.5 mph 16.1 mph N/A   Overcast
10:35 PM 30.2 °F 20.2 °F 30.2 °F 100% 29.66 in 4.0 mi NNE 12.7 mph 17.3 mph N/A   Overcast
10:55 PM 30.2 °F 21.9 °F 30.2 °F 100% 29.66 in 5.0 mi NNE 9.2 mph 16.1 mph N/A   Overcast
11:15 PM 30.2 °F 21.3 °F 30.2 °F 100% 29.67 in 5.0 mi NNE 10.4 mph - N/A   Overcast
11:35 PM 30.2 °F 21.9 °F 30.2 °F 100% 29.67 in 5.0 mi NNE 9.2 mph - N/A   Overcast
11:55 PM 28.4 °F 20.4 °F 28.4 °F 100% 29.67 in 5.0 mi NNE 8.1 mph - N/A   Overcast